,,PA_Meas_PMT16A,,PR_Meas_QMR101_102,,RH_Meas_QMH101,,SR_Meas_QMS101,,TA_Meas_QMH101,,GenWind,,GenWind,
time,status,PA,status,PR,status,RH,status,SR,status,TA,status,DirAvg,status,SpdAvg,
2013-06-09, 00:00:04,VALID,917.875,VALID,0,VALID,95.5824,VALID,0,VALID,20.4423,VALID,342,VALID,0,
2013-06-09, 00:01:04,VALID,917.91,VALID,0,VALID,95.6357,VALID,0,VALID,20.4618,VALID,342,VALID,0,
2013-06-09, 00:02:04,VALID,917.886,VALID,0,VALID,95.651,VALID,0,VALID,20.4829,VALID,342,VALID,0,
2013-06-09, 00:03:04,VALID,917.911,VALID,0.2,VALID,95.6434,VALID,0,VALID,20.4634,VALID,342,VALID,0,
2013-06-09, 00:04:04,VALID,917.917,VALID,0,VALID,95.6815,VALID,0,VALID,20.4439,VALID,342,VALID,0,
2013-06-09, 00:05:04,VALID,917.923,VALID,0,VALID,95.6891,VALID,0,VALID,20.4439,VALID,342,VALID,0,
2013-06-09, 00:06:04,VALID,917.922,VALID,0,VALID,95.6967,VALID,0,VALID,20.3838,VALID,341,VALID,0,
2013-06-09, 00:07:04,VALID,917.904,VALID,0.2,VALID,95.7501,VALID,0,VALID,20.3838,VALID,341,VALID,0,
2013-06-09, 00:08:04,VALID,917.9,VALID,0,VALID,95.834,VALID,0,VALID,20.3838,VALID,266,VALID,0,
2013-06-09, 00:09:04,VALID,917.916,VALID,0,VALID,95.9026,VALID,0.107441,VALID,20.4244,VALID,266,VALID,0,
2013-06-09, 00:10:04,VALID,917.931,VALID,0,VALID,95.9559,VALID,0,VALID,20.4049,VALID,266,VALID,0,
2013-06-09, 00:11:04,VALID,917.922,VALID,0,VALID,95.9788,VALID,0,VALID,20.4049,VALID,266,VALID,0,
2013-06-09, 00:12:04,VALID,917.916,VALID,0.2,VALID,96.0169,VALID,0,VALID,20.3838,VALID,261,VALID,0,
2013-06-09, 00:13:04,VALID,917.917,VALID,0,VALID,96.0779,VALID,0,VALID,20.4244,VALID,261,VALID,0,
2013-06-09, 00:14:04,VALID,917.889,VALID,0,VALID,96.1084,VALID,0,VALID,20.3838,VALID,261,VALID,0,
2013-06-09, 00:15:04,VALID,917.9,VALID,0,VALID,96.1541,VALID,0,VALID,20.4244,VALID,261,VALID,0,
2013-06-09, 00:16:04,VALID,917.879,VALID,0.2,VALID,96.1846,VALID,0,VALID,20.4439,VALID,261,VALID,0,
2013-06-09, 00:17:04,VALID,917.868,VALID,0,VALID,96.2075,VALID,0,VALID,20.4033,VALID,261,VALID,0,
2013-06-09, 00:18:04,VALID,917.852,VALID,0,VALID,96.2456,VALID,0,VALID,20.4439,VALID,261,VALID,0,
2013-06-09, 00:19:04,VALID,917.868,VALID,0,VALID,96.2837,VALID,0,VALID,20.4439,VALID,261,VALID,0,
2013-06-09, 00:20:04,VALID,917.832,VALID,0.2,VALID,96.3295,VALID,0,VALID,20.4829,VALID,279,VALID,0,
2013-06-09, 00:21:04,VALID,917.826,VALID,0,VALID,96.3371,VALID,0,VALID,20.4829,VALID,285,VALID,0,
2013-06-09, 00:22:04,VALID,917.799,VALID,0,VALID,96.3676,VALID,0,VALID,20.4829,VALID,285,VALID,0,
2013-06-09, 00:23:04,VALID,917.807,VALID,0,VALID,96.3676,VALID,0,VALID,20.4813,VALID,285,VALID,0,
2013-06-09, 00:24:04,VALID,917.761,VALID,0,VALID,96.3524,VALID,0,VALID,20.4634,VALID,285,VALID,0,
2013-06-09, 00:25:04,VALID,917.778,VALID,0.2,VALID,96.3676,VALID,0,VALID,20.4033,VALID,285,VALID,0,
2013-06-09, 00:26:04,VALID,917.774,VALID,0,VALID,96.3752,VALID,0,VALID,20.4439,VALID,286,VALID,0,
2013-06-09, 00:27:04,VALID,917.733,VALID,0,VALID,96.3905,VALID,0,VALID,20.4634,VALID,286,VALID,0,
2013-06-09, 00:28:04,VALID,917.7,VALID,0,VALID,96.4515,VALID,0,VALID,20.5024,VALID,286,VALID,0,
2013-06-09, 00:29:04,VALID,917.725,VALID,0,VALID,96.4667,VALID,0,VALID,20.4813,VALID,286,VALID,0,
2013-06-09, 00:30:04,VALID,917.674,VALID,0.2,VALID,96.4286,VALID,0,VALID,20.4634,VALID,286,VALID,0,
2013-06-09, 00:31:04,VALID,917.697,VALID,0,VALID,96.4438,VALID,0,VALID,20.4439,VALID,286,VALID,0,
2013-06-09, 00:32:04,VALID,917.675,VALID,0,VALID,96.4438,VALID,0,VALID,20.4439,VALID,286,VALID,0,
2013-06-09, 00:33:04,VALID,917.685,VALID,0,VALID,96.4743,VALID,0,VALID,20.4829,VALID,286,VALID,0,
2013-06-09, 00:34:04,VALID,917.642,VALID,0.2,VALID,96.5048,VALID,0,VALID,20.5024,VALID,286,VALID,0,
2013-06-09, 00:35:04,VALID,917.618,VALID,0,VALID,96.5048,VALID,0,VALID,20.4829,VALID,286,VALID,0,
2013-06-09, 00:36:04,VALID,917.602,VALID,0,VALID,96.5506,VALID,0,VALID,20.5219,VALID,286,VALID,0,
2013-06-09, 00:37:04,VALID,917.625,VALID,0,VALID,96.5124,VALID,0,VALID,20.4829,VALID,286,VALID,0,
2013-06-09, 00:38:04,VALID,917.598,VALID,0.2,VALID,96.5429,VALID,0,VALID,20.4618,VALID,286,VALID,0,
2013-06-09, 00:39:04,VALID,917.616,VALID,0,VALID,96.5506,VALID,0,VALID,20.4813,VALID,286,VALID,0,
2013-06-09, 00:40:04,VALID,917.593,VALID,0,VALID,96.5506,VALID,0,VALID,20.4618,VALID,286,VALID,0,
2013-06-09, 00:41:04,VALID,917.615,VALID,0,VALID,96.5582,VALID,0,VALID,20.4634,VALID,286,VALID,0,
2013-06-09, 00:42:04,VALID,917.594,VALID,0,VALID,96.5582,VALID,0,VALID,20.4439,VALID,9,VALID,0,
2013-06-09, 00:43:04,VALID,917.603,VALID,0.2,VALID,96.5582,VALID,0,VALID,20.3448,VALID,9,VALID,0,
2013-06-09, 00:44:04,VALID,917.592,VALID,0,VALID,96.5353,VALID,0,VALID,20.3659,VALID,26,VALID,0,
2013-06-09, 00:45:04,VALID,917.59,VALID,0,VALID,96.5353,VALID,0,VALID,20.3269,VALID,26,VALID,0,
2013-06-09, 00:46:04,VALID,917.588,VALID,0,VALID,96.5658,VALID,0,VALID,20.3464,VALID,25,VALID,0,
2013-06-09, 00:47:04,VALID,917.567,VALID,0.2,VALID,96.5734,VALID,0,VALID,20.2863,VALID,25,VALID,0,
2013-06-09, 00:48:04,VALID,917.568,VALID,0,VALID,96.5811,VALID,0,VALID,20.3074,VALID,25,VALID,0,
2013-06-09, 00:49:04,VALID,917.51,VALID,0,VALID,96.5887,VALID,0,VALID,20.2863,VALID,26,VALID,0,
2013-06-09, 00:50:04,VALID,917.508,VALID,0,VALID,96.5887,VALID,0,VALID,20.3074,VALID,25,VALID,0,
2013-06-09, 00:51:04,VALID,917.521,VALID,0.2,VALID,96.6344,VALID,0,VALID,20.3464,VALID,19,VALID,0,
2013-06-09, 00:52:04,VALID,917.501,VALID,0,VALID,96.6268,VALID,0,VALID,20.2863,VALID,16,VALID,0,
2013-06-09, 00:53:04,VALID,917.527,VALID,0,VALID,96.6573,VALID,0,VALID,20.2668,VALID,20,VALID,0,
2013-06-09, 00:54:04,VALID,917.537,VALID,0,VALID,96.6497,VALID,0,VALID,20.3074,VALID,13,VALID,0,
2013-06-09, 00:55:04,VALID,917.556,VALID,0,VALID,96.6344,VALID,0,VALID,20.3074,VALID,360,VALID,0,
2013-06-09, 00:56:04,VALID,917.556,VALID,0.2,VALID,96.6725,VALID,0,VALID,20.3269,VALID,360,VALID,0,
2013-06-09, 00:57:04,VALID,917.548,VALID,0,VALID,96.6649,VALID,0,VALID,20.3464,VALID,360,VALID,0,
2013-06-09, 00:58:04,VALID,917.547,VALID,0,VALID,96.6954,VALID,0,VALID,20.3643,VALID,360,VALID,0,
2013-06-09, 00:59:04,VALID,917.528,VALID,0.2,VALID,96.7107,VALID,0,VALID,20.3838,VALID,360,VALID,0,
2013-06-09, 01:00:04,VALID,917.531,VALID,0,VALID,96.7183,VALID,0,VALID,20.4423,VALID,360,VALID,0,
2013-06-09, 01:01:04,VALID,917.527,VALID,0,VALID,96.7335,VALID,0,VALID,20.4813,VALID,360,VALID,0,
2013-06-09, 01:02:05,VALID,917.533,VALID,0.2,VALID,96.7488,VALID,0,VALID,20.5204,VALID,360,VALID,0,
2013-06-09, 01:03:05,VALID,917.523,VALID,0,VALID,96.7411,VALID,0,VALID,20.4813,VALID,360,VALID,0,
2013-06-09, 01:04:05,VALID,917.519,VALID,0.2,VALID,96.7564,VALID,0.107441,VALID,20.5009,VALID,360,VALID,0,
2013-06-09, 01:05:05,VALID,917.511,VALID,0,VALID,96.7564,VALID,0,VALID,20.5414,VALID,360,VALID,0,
2013-06-09, 01:06:05,VALID,917.481,VALID,0.2,VALID,96.764,VALID,0,VALID,20.5024,VALID,360,VALID,0,
2013-06-09, 01:07:05,VALID,917.489,VALID,0,VALID,96.7411,VALID,0,VALID,20.4228,VALID,360,VALID,0,
2013-06-09, 01:08:05,VALID,917.478,VALID,0.2,VALID,96.764,VALID,0,VALID,20.4049,VALID,360,VALID,0,
2013-06-09, 01:09:05,VALID,917.468,VALID,0,VALID,96.7488,VALID,0,VALID,20.3838,VALID,360,VALID,0,
2013-06-09, 01:10:05,VALID,917.462,VALID,0.2,VALID,96.7564,VALID,0,VALID,20.3659,VALID,360,VALID,0,
2013-06-09, 01:11:05,VALID,917.444,VALID,0,VALID,96.7488,VALID,0,VALID,20.3448,VALID,360,VALID,0,
2013-06-09, 01:12:05,VALID,917.449,VALID,0.2,VALID,96.7564,VALID,0,VALID,20.3269,VALID,360,VALID,0,
2013-06-09, 01:13:05,VALID,917.439,VALID,0,VALID,96.764,VALID,0,VALID,20.2863,VALID,360,VALID,0,
2013-06-09, 01:14:05,VALID,917.419,VALID,0.2,VALID,96.7716,VALID,0,VALID,20.3074,VALID,360,VALID,0,
2013-06-09, 01:15:05,VALID,917.395,VALID,0,VALID,96.7793,VALID,0,VALID,20.3253,VALID,360,VALID,0,
2013-06-09, 01:16:05,VALID,917.401,VALID,0.2,VALID,96.7793,VALID,0,VALID,20.3659,VALID,360,VALID,0,
2013-06-09, 01:17:05,VALID,917.415,VALID,0,VALID,96.7945,VALID,0,VALID,20.3464,VALID,360,VALID,0,
2013-06-09, 01:18:05,VALID,917.388,VALID,0,VALID,96.8021,VALID,0,VALID,20.3464,VALID,360,VALID,0,
2013-06-09, 01:19:05,VALID,917.395,VALID,0.2,VALID,96.7945,VALID,0,VALID,20.3058,VALID,360,VALID,0,
2013-06-09, 01:20:05,VALID,917.363,VALID,0,VALID,96.8021,VALID,0,VALID,20.3269,VALID,360,VALID,0,
2013-06-09, 01:21:05,VALID,917.366,VALID,0.2,VALID,96.8098,VALID,0,VALID,20.3058,VALID,360,VALID,0,
2013-06-09, 01:22:05,VALID,917.363,VALID,0,VALID,96.8098,VALID,0,VALID,20.3058,VALID,360,VALID,0,
2013-06-09, 01:23:05,VALID,917.332,VALID,0,VALID,96.8174,VALID,0,VALID,20.3074,VALID,360,VALID,0,
2013-06-09, 01:24:05,VALID,917.297,VALID,0.2,VALID,96.8174,VALID,0,VALID,20.3659,VALID,360,VALID,0,
2013-06-09, 01:25:05,VALID,917.288,VALID,0,VALID,96.825,VALID,0,VALID,20.3448,VALID,360,VALID,0,
2013-06-09, 01:26:05,VALID,917.301,VALID,0,VALID,96.8403,VALID,0,VALID,20.3854,VALID,360,VALID,0,
2013-06-09, 01:27:05,VALID,917.304,VALID,0,VALID,96.8403,VALID,0,VALID,20.3838,VALID,360,VALID,0,
2013-06-09, 01:28:05,VALID,917.248,VALID,0.2,VALID,96.8479,VALID,0,VALID,20.4228,VALID,360,VALID,0,
2013-06-09, 01:29:05,VALID,917.24,VALID,0,VALID,96.8707,VALID,0.107441,VALID,20.4423,VALID,360,VALID,0,
2013-06-09, 01:30:05,VALID,917.252,VALID,0,VALID,96.8326,VALID,0,VALID,20.4618,VALID,360,VALID,0,
2013-06-09, 01:31:05,VALID,917.237,VALID,0.2,VALID,96.8707,VALID,0,VALID,20.5009,VALID,1,VALID,0,
2013-06-09, 01:32:05,VALID,917.259,VALID,0,VALID,96.8479,VALID,0.107441,VALID,20.5204,VALID,1,VALID,0,
2013-06-09, 01:33:05,VALID,917.222,VALID,0,VALID,96.8555,VALID,0,VALID,20.5594,VALID,1,VALID,0,
2013-06-09, 01:34:05,VALID,917.196,VALID,0,VALID,96.8631,VALID,0,VALID,20.5804,VALID,1,VALID,0,
2013-06-09, 01:35:05,VALID,917.231,VALID,0.2,VALID,96.8479,VALID,0,VALID,20.5009,VALID,1,VALID,0,
2013-06-09, 01:36:05,VALID,917.221,VALID,0,VALID,96.8555,VALID,0,VALID,20.4813,VALID,1,VALID,0,
2013-06-09, 01:37:05,VALID,917.217,VALID,0,VALID,96.8479,VALID,0,VALID,20.5219,VALID,1,VALID,0,
2013-06-09, 01:38:05,VALID,917.214,VALID,0,VALID,96.8555,VALID,0,VALID,20.4228,VALID,1,VALID,0,
2013-06-09, 01:39:05,VALID,917.196,VALID,0,VALID,96.8555,VALID,0,VALID,20.4033,VALID,1,VALID,0,
2013-06-09, 01:40:05,VALID,917.215,VALID,0.2,VALID,96.8403,VALID,0,VALID,20.4049,VALID,1,VALID,0,
2013-06-09, 01:41:05,VALID,917.194,VALID,0,VALID,96.8555,VALID,0,VALID,20.4049,VALID,1,VALID,0,
2013-06-09, 01:42:05,VALID,917.197,VALID,0,VALID,96.8479,VALID,0,VALID,20.4033,VALID,1,VALID,0,
2013-06-09, 01:43:05,VALID,917.153,VALID,0.2,VALID,96.8479,VALID,0,VALID,20.4259,VALID,1,VALID,0,
2013-06-09, 01:44:05,VALID,917.177,VALID,0,VALID,96.8631,VALID,0,VALID,20.4439,VALID,1,VALID,0,
2013-06-09, 01:45:05,VALID,917.141,VALID,0,VALID,96.8707,VALID,0,VALID,20.3838,VALID,2,VALID,0,
2013-06-09, 01:46:05,VALID,917.135,VALID,0.2,VALID,96.8784,VALID,0,VALID,20.4439,VALID,3,VALID,0,
2013-06-09, 01:47:05,VALID,917.131,VALID,0,VALID,96.8707,VALID,0,VALID,20.4423,VALID,9,VALID,0,
2013-06-09, 01:48:05,VALID,917.128,VALID,0,VALID,96.8707,VALID,0.107441,VALID,20.4244,VALID,10,VALID,0,
2013-06-09, 01:49:05,VALID,917.12,VALID,0.2,VALID,96.8479,VALID,0,VALID,20.3058,VALID,10,VALID,0,
2013-06-09, 01:50:05,VALID,917.106,VALID,0,VALID,96.8707,VALID,0,VALID,20.3058,VALID,8,VALID,0,
2013-06-09, 01:51:05,VALID,917.062,VALID,0,VALID,96.8707,VALID,0,VALID,20.2668,VALID,8,VALID,0,
2013-06-09, 01:52:05,VALID,917.068,VALID,0,VALID,96.8555,VALID,0,VALID,20.2668,VALID,9,VALID,0,
2013-06-09, 01:53:05,VALID,917.048,VALID,0.2,VALID,96.8707,VALID,0,VALID,20.2473,VALID,11,VALID,0,
2013-06-09, 01:54:05,VALID,917.031,VALID,0,VALID,96.8784,VALID,0,VALID,20.2879,VALID,338,VALID,0,
2013-06-09, 01:55:05,VALID,917.004,VALID,0,VALID,96.8936,VALID,0,VALID,20.2293,VALID,7,VALID,0,
2013-06-09, 01:56:05,VALID,916.996,VALID,0,VALID,96.9089,VALID,0,VALID,20.2098,VALID,333,VALID,0,
2013-06-09, 01:57:05,VALID,916.981,VALID,0,VALID,96.8631,VALID,0.107441,VALID,20.1693,VALID,350,VALID,0,
2013-06-09, 01:58:05,VALID,916.952,VALID,0.2,VALID,96.8936,VALID,0,VALID,20.1303,VALID,335,VALID,0,
2013-06-09, 01:59:05,VALID,916.93,VALID,0,VALID,96.8936,VALID,0,VALID,20.1303,VALID,346,VALID,0,
2013-06-09, 02:00:05,VALID,916.885,VALID,0,VALID,96.9012,VALID,0,VALID,20.1513,VALID,347,VALID,0,
2013-06-09, 02:01:05,VALID,916.908,VALID,0,VALID,96.8936,VALID,0,VALID,20.1303,VALID,19,VALID,0,
2013-06-09, 02:02:05,VALID,916.894,VALID,0,VALID,96.9089,VALID,0,VALID,20.1318,VALID,38,VALID,0,
2013-06-09, 02:03:05,VALID,916.879,VALID,0,VALID,96.9089,VALID,0,VALID,20.1123,VALID,17,VALID,0,
2013-06-09, 02:04:05,VALID,916.879,VALID,0.2,VALID,96.9241,VALID,0,VALID,20.1108,VALID,355,VALID,0,
2013-06-09, 02:05:05,VALID,916.837,VALID,0,VALID,96.9241,VALID,0,VALID,20.0733,VALID,358,VALID,0,
2013-06-09, 02:06:05,VALID,916.863,VALID,0,VALID,96.9089,VALID,0,VALID,20.0523,VALID,3,VALID,0,
2013-06-09, 02:07:05,VALID,916.801,VALID,0,VALID,96.9394,VALID,0,VALID,20.0328,VALID,4,VALID,0,
2013-06-09, 02:08:05,VALID,916.792,VALID,0,VALID,96.9165,VALID,0,VALID,20.0553,VALID,355,VALID,0,
2013-06-09, 02:09:05,VALID,916.795,VALID,0,VALID,96.9394,VALID,0,VALID,20.0343,VALID,19,VALID,0,
2013-06-09, 02:10:05,VALID,916.766,VALID,0.2,VALID,96.9165,VALID,0,VALID,19.9953,VALID,12,VALID,0,
2013-06-09, 02:11:05,VALID,916.739,VALID,0,VALID,96.947,VALID,0,VALID,20.0163,VALID,4,VALID,0,
2013-06-09, 02:12:05,VALID,916.727,VALID,0,VALID,96.9698,VALID,0,VALID,19.9548,VALID,12,VALID,0,
2013-06-09, 02:13:05,VALID,916.71,VALID,0,VALID,96.9394,VALID,0,VALID,19.9173,VALID,7,VALID,0,
2013-06-09, 02:14:05,VALID,916.695,VALID,0,VALID,96.947,VALID,0,VALID,19.9368,VALID,24,VALID,0,
2013-06-09, 02:15:05,VALID,916.66,VALID,0,VALID,96.9546,VALID,0,VALID,19.9548,VALID,355,VALID,0,
2013-06-09, 02:16:05,VALID,916.645,VALID,0,VALID,96.947,VALID,0,VALID,19.8768,VALID,356,VALID,0,
2013-06-09, 02:17:05,VALID,916.67,VALID,0.2,VALID,96.9317,VALID,0,VALID,19.8573,VALID,11,VALID,0,
2013-06-09, 02:18:05,VALID,916.628,VALID,0,VALID,96.9394,VALID,0,VALID,19.8393,VALID,356,VALID,0,
2013-06-09, 02:19:05,VALID,916.594,VALID,0,VALID,96.9394,VALID,0,VALID,19.7793,VALID,7,VALID,0,
2013-06-09, 02:20:05,VALID,916.608,VALID,0,VALID,96.9317,VALID,0,VALID,19.8003,VALID,346,VALID,0,
2013-06-09, 02:21:05,VALID,916.584,VALID,0,VALID,96.947,VALID,0,VALID,19.7823,VALID,353,VALID,0,
2013-06-09, 02:22:05,VALID,916.563,VALID,0.2,VALID,96.9317,VALID,0,VALID,19.7613,VALID,348,VALID,0,
2013-06-09, 02:23:05,VALID,916.529,VALID,0,VALID,96.9317,VALID,0,VALID,19.7403,VALID,12,VALID,0,
2013-06-09, 02:24:05,VALID,916.478,VALID,0,VALID,96.9241,VALID,0,VALID,19.7208,VALID,349,VALID,0,
2013-06-09, 02:25:05,VALID,916.486,VALID,0,VALID,96.9317,VALID,0,VALID,19.7013,VALID,322,VALID,0,
2013-06-09, 02:26:05,VALID,916.461,VALID,0,VALID,96.9317,VALID,0,VALID,19.7028,VALID,330,VALID,0,
2013-06-09, 02:27:05,VALID,916.465,VALID,0.2,VALID,96.9317,VALID,0,VALID,19.7223,VALID,333,VALID,0,
2013-06-09, 02:28:05,VALID,916.395,VALID,0,VALID,96.9241,VALID,0,VALID,19.7208,VALID,334,VALID,0,
2013-06-09, 02:29:05,VALID,916.409,VALID,0,VALID,96.9394,VALID,0,VALID,19.7208,VALID,324,VALID,0,
2013-06-09, 02:30:05,VALID,916.385,VALID,0,VALID,96.9241,VALID,0,VALID,19.7403,VALID,324,VALID,0,
2013-06-09, 02:31:05,VALID,916.396,VALID,0,VALID,96.9241,VALID,0,VALID,19.7583,VALID,357,VALID,0,
2013-06-09, 02:32:05,VALID,916.361,VALID,0,VALID,96.9241,VALID,0,VALID,19.8003,VALID,339,VALID,0,
2013-06-09, 02:33:05,VALID,916.361,VALID,0,VALID,96.9317,VALID,0,VALID,19.7808,VALID,360,VALID,0,
2013-06-09, 02:34:05,VALID,916.345,VALID,0,VALID,96.9394,VALID,0,VALID,19.7808,VALID,313,VALID,0,
2013-06-09, 08:37:04,VALID,917.077,VALID,0,VALID,93.3182,VALID,139.781,VALID,20.4618,VALID,36,VALID,0,
2013-06-09, 08:38:04,VALID,917.03,VALID,0,VALID,93.3792,VALID,145.26,VALID,20.4829,VALID,46,VALID,0,
2013-06-09, 08:39:04,VALID,917.073,VALID,0,VALID,93.5241,VALID,150.203,VALID,20.4813,VALID,46,VALID,0,
2013-06-09, 08:40:04,VALID,917.045,VALID,0,VALID,93.425,VALID,154.071,VALID,20.4829,VALID,46,VALID,0,
2013-06-09, 08:41:04,VALID,917.038,VALID,0,VALID,93.3792,VALID,156.542,VALID,20.4618,VALID,29,VALID,0,
2013-06-09, 08:42:04,VALID,917.012,VALID,0,VALID,93.7833,VALID,157.724,VALID,20.5609,VALID,41,VALID,0,
2013-06-09, 08:43:04,VALID,917.041,VALID,0,VALID,93.8747,VALID,157.831,VALID,20.639,VALID,46,VALID,0,
2013-06-09, 08:44:04,VALID,917.04,VALID,0,VALID,93.5469,VALID,156.757,VALID,20.6194,VALID,65,VALID,0,
2013-06-09, 08:45:04,VALID,917.043,VALID,0,VALID,93.303,VALID,155.252,VALID,20.5789,VALID,65,VALID,0,
2013-06-09, 08:46:04,VALID,917.016,VALID,0,VALID,92.3577,VALID,153.963,VALID,20.5399,VALID,78,VALID,0,
2013-06-09, 08:47:04,VALID,916.993,VALID,0,VALID,92.7617,VALID,152.889,VALID,20.6585,VALID,66,VALID,0,
2013-06-09, 08:48:04,VALID,917.061,VALID,0,VALID,92.8761,VALID,152.137,VALID,20.7381,VALID,70,VALID,0,
2013-06-09, 08:49:04,VALID,917.012,VALID,0,VALID,93.0667,VALID,151.492,VALID,20.756,VALID,89,VALID,0,
2013-06-09, 08:50:04,VALID,917.003,VALID,0,VALID,93.0514,VALID,150.74,VALID,20.7755,VALID,80,VALID,0,
2013-06-09, 08:51:04,VALID,916.962,VALID,0,VALID,92.9599,VALID,149.773,VALID,20.834,VALID,82,VALID,0,
2013-06-09, 08:52:04,VALID,916.902,VALID,0,VALID,92.594,VALID,148.699,VALID,20.8129,VALID,93,VALID,0,
2013-06-09, 08:53:04,VALID,916.882,VALID,0,VALID,92.9676,VALID,147.946,VALID,20.891,VALID,99,VALID,0,
2013-06-09, 08:54:04,VALID,916.942,VALID,0,VALID,93.2877,VALID,147.302,VALID,20.9706,VALID,108,VALID,0,
2013-06-09, 08:55:04,VALID,916.906,VALID,0,VALID,93.4402,VALID,147.302,VALID,20.9706,VALID,127,VALID,0,
2013-06-09, 08:56:04,VALID,916.821,VALID,0,VALID,93.6079,VALID,147.732,VALID,20.9706,VALID,127,VALID,0,
2013-06-09, 08:57:04,VALID,916.929,VALID,0,VALID,93.4631,VALID,147.839,VALID,20.9511,VALID,94,VALID,0,
2013-06-09, 08:58:04,VALID,916.902,VALID,0,VALID,93.1581,VALID,147.087,VALID,20.9136,VALID,110,VALID,0,
2013-06-09, 08:59:04,VALID,916.869,VALID,0,VALID,93.2877,VALID,145.26,VALID,20.8714,VALID,110,VALID,0,
2013-06-09, 09:00:04,VALID,916.927,VALID,0,VALID,93.0133,VALID,142.145,VALID,20.834,VALID,112,VALID,0,
2013-06-09, 09:01:04,VALID,916.894,VALID,0,VALID,93.425,VALID,138.599,VALID,20.8324,VALID,103,VALID,0,
2013-06-09, 09:07:04,VALID,916.778,VALID,0,VALID,94.0501,VALID,134.301,VALID,20.717,VALID,74,VALID,0,
2013-06-09, 09:08:04,VALID,916.723,VALID,0,VALID,93.9281,VALID,136.02,VALID,20.6764,VALID,102,VALID,0,
2013-06-09, 09:09:04,VALID,916.712,VALID,0,VALID,94.0577,VALID,138.062,VALID,20.6764,VALID,114,VALID,0,
2013-06-09, 09:10:04,VALID,916.701,VALID,0,VALID,93.6689,VALID,140.103,VALID,20.6194,VALID,111,VALID,0,
2013-06-09, 09:11:04,VALID,916.747,VALID,0,VALID,93.7833,VALID,141.715,VALID,20.6179,VALID,95,VALID,0,
2013-06-09, 09:12:04,VALID,916.724,VALID,0,VALID,93.9357,VALID,143.541,VALID,20.678,VALID,144,VALID,0,
2013-06-09, 09:13:04,VALID,916.734,VALID,0,VALID,94.0501,VALID,145.69,VALID,20.717,VALID,154,VALID,0,
2013-06-09, 09:14:04,VALID,916.709,VALID,0,VALID,93.951,VALID,148.161,VALID,20.7365,VALID,141,VALID,0,
2013-06-09, 09:15:04,VALID,916.672,VALID,0,VALID,93.951,VALID,150.847,VALID,20.7755,VALID,153,VALID,0,
2013-06-09, 09:16:04,VALID,916.641,VALID,0,VALID,93.8366,VALID,153.533,VALID,20.7739,VALID,165,VALID,0,
2013-06-09, 09:17:04,VALID,916.65,VALID,0,VALID,93.6003,VALID,156.327,VALID,20.7739,VALID,132,VALID,0,
2013-06-09, 09:18:04,VALID,916.57,VALID,0,VALID,93.5774,VALID,159.013,VALID,20.7739,VALID,143,VALID,0,
2013-06-09, 09:19:04,VALID,916.637,VALID,0,VALID,93.5546,VALID,161.699,VALID,20.8551,VALID,171,VALID,0,
2013-06-09, 09:20:04,VALID,916.573,VALID,0,VALID,93.7147,VALID,164.278,VALID,20.8519,VALID,172,VALID,0,
2013-06-09, 09:21:04,VALID,916.591,VALID,0,VALID,93.707,VALID,166.319,VALID,20.912,VALID,174,VALID,0,
2013-06-09, 09:22:04,VALID,916.515,VALID,0,VALID,93.5241,VALID,167.931,VALID,20.912,VALID,134,VALID,0,
2013-06-09, 09:23:04,VALID,916.567,VALID,0,VALID,93.0895,VALID,168.79,VALID,20.9316,VALID,153,VALID,0,
2013-06-09, 09:24:04,VALID,916.556,VALID,0,VALID,92.5559,VALID,169.757,VALID,20.9706,VALID,133,VALID,0,
2013-06-09, 09:25:04,VALID,916.607,VALID,0,VALID,92.0299,VALID,170.831,VALID,21.0096,VALID,145,VALID,0,
2013-06-09, 09:26:04,VALID,916.581,VALID,0,VALID,91.7783,VALID,173.088,VALID,21.0681,VALID,118,VALID,0,
2013-06-09, 09:27:04,VALID,916.645,VALID,0,VALID,91.5801,VALID,176.311,VALID,21.1071,VALID,138,VALID,0,
2013-06-09, 09:28:04,VALID,916.597,VALID,0,VALID,91.6792,VALID,180.716,VALID,21.1657,VALID,127,VALID,0,
2013-06-09, 09:29:04,VALID,916.559,VALID,0,VALID,90.9778,VALID,185.229,VALID,21.1445,VALID,178,VALID,0,
2013-06-09, 09:30:04,VALID,916.687,VALID,0,VALID,90.5738,VALID,189.849,VALID,21.2047,VALID,142,VALID,0,
2013-06-09, 09:31:04,VALID,916.601,VALID,0,VALID,90.7415,VALID,194.361,VALID,21.2421,VALID,172,VALID,0,
2013-06-09, 09:32:04,VALID,916.416,VALID,0,VALID,90.9702,VALID,199.088,VALID,21.3022,VALID,151,VALID,0,
2013-06-09, 09:33:04,VALID,916.582,VALID,0,VALID,90.5662,VALID,204.246,VALID,21.3217,VALID,155,VALID,0,
2013-06-09, 09:34:04,VALID,916.586,VALID,0,VALID,90.7263,VALID,209.833,VALID,21.3591,VALID,131,VALID,0,
2013-06-09, 09:35:04,VALID,916.415,VALID,0,VALID,90.4137,VALID,215.312,VALID,21.3786,VALID,159,VALID,0,
2013-06-09, 09:36:04,VALID,916.508,VALID,0,VALID,89.9182,VALID,220.577,VALID,21.3981,VALID,177,VALID,0,
2013-06-09, 09:37:04,VALID,916.49,VALID,0,VALID,90.124,VALID,225.734,VALID,21.4177,VALID,150,VALID,0,
2013-06-09, 09:38:04,VALID,916.573,VALID,0,VALID,89.9487,VALID,229.817,VALID,21.4583,VALID,135,VALID,0,
2013-06-09, 09:39:04,VALID,916.739,VALID,0,VALID,89.7505,VALID,232.932,VALID,21.4372,VALID,160,VALID,0,
2013-06-09, 09:40:04,VALID,916.568,VALID,0,VALID,90.1164,VALID,234.974,VALID,21.5152,VALID,143,VALID,0,
2013-06-09, 09:41:04,VALID,916.495,VALID,0,VALID,89.6514,VALID,236.156,VALID,21.5347,VALID,148,VALID,0,
2013-06-09, 09:42:04,VALID,916.556,VALID,0,VALID,90.0402,VALID,236.585,VALID,21.5737,VALID,169,VALID,0,
2013-06-09, 09:43:04,VALID,916.565,VALID,0,VALID,89.8801,VALID,236.8,VALID,21.6128,VALID,179,VALID,0,
2013-06-09, 09:44:04,VALID,916.553,VALID,0,VALID,89.1406,VALID,237.445,VALID,21.6323,VALID,153,VALID,0,
2013-06-09, 09:45:04,VALID,916.57,VALID,0,VALID,89.1863,VALID,238.627,VALID,21.6908,VALID,159,VALID,0,
2013-06-09, 09:46:04,VALID,916.348,VALID,0,VALID,88.7137,VALID,240.561,VALID,21.7103,VALID,119,VALID,0,
2013-06-09, 09:47:04,VALID,916.633,VALID,0,VALID,88.8814,VALID,242.71,VALID,21.7298,VALID,144,VALID,0,
2013-06-09, 09:48:04,VALID,916.718,VALID,0,VALID,87.3262,VALID,244.966,VALID,21.7103,VALID,132,VALID,0,
2013-06-09, 09:49:04,VALID,916.607,VALID,0,VALID,87.6007,VALID,247.115,VALID,21.7298,VALID,129,VALID,0,
2013-06-09, 09:50:04,VALID,916.533,VALID,0,VALID,87.9056,VALID,249.908,VALID,21.8095,VALID,135,VALID,0,
2013-06-09, 09:51:04,VALID,916.488,VALID,0,VALID,89.4227,VALID,251.95,VALID,21.8876,VALID,105,VALID,0,
2013-06-09, 09:52:04,VALID,916.535,VALID,0,VALID,88.7899,VALID,254.313,VALID,21.9266,VALID,117,VALID,0,
2013-06-09, 09:53:04,VALID,916.617,VALID,0,VALID,87.0823,VALID,256.355,VALID,21.9087,VALID,73,VALID,0,
2013-06-09, 09:54:04,VALID,916.547,VALID,0,VALID,87.0137,VALID,259.685,VALID,21.9071,VALID,111,VALID,0,
2013-06-09, 09:55:04,VALID,916.612,VALID,0,VALID,88.0276,VALID,263.338,VALID,21.9266,VALID,111,VALID,0,
2013-06-09, 09:56:04,VALID,916.594,VALID,0,VALID,88.828,VALID,267.314,VALID,22.0063,VALID,117,VALID,0,
2013-06-09, 09:57:04,VALID,916.621,VALID,0,VALID,88.8509,VALID,271.396,VALID,22.0047,VALID,121,VALID,0,
2013-06-09, 09:58:04,VALID,916.371,VALID,0,VALID,88.95,VALID,275.157,VALID,22.0827,VALID,106,VALID,0,
2013-06-09, 09:59:04,VALID,916.461,VALID,0,VALID,86.9527,VALID,278.38,VALID,22.1022,VALID,118,VALID,0,
2013-06-09, 10:00:04,VALID,916.528,VALID,0,VALID,86.7621,VALID,280.636,VALID,22.1201,VALID,138,VALID,0,
2013-06-09, 10:01:04,VALID,916.565,VALID,0,VALID,86.0455,VALID,281.818,VALID,22.1217,VALID,133,VALID,0,
2013-06-09, 10:02:04,VALID,916.484,VALID,0,VALID,86.6935,VALID,281.603,VALID,22.1005,VALID,134,VALID,0,